Regional Weather Roundup
Issued by NWS

Home | Current Version | Previous Version | Graphics & Text | Print | Product List | Glossary On
Versions: 1 2 3 4 5 6 7 8 9 10 11 12 13 14 15 16 17 18 19 20 21 22 23 24 25 26 27 28 29 30 31 32 33 34 35 36 37 38 39 40 41 42 43 44 45 46 47 48 49 50
000
ASUS45 KTFX 270704
RWRMT
MONTANA HOURLY WEATHER ROUNDUP
NATIONAL WEATHER SERVICE GREAT FALLS MT
1204 AM MST FRI FEB 27 2015

NOTE: "FAIR" INDICATES FEW OR NO CLOUDS BELOW 12000 FEET WITH NO
SIGNIFICANT WEATHER AND/OR OBSTRUCTIONS TO VISIBILITY.

* THESE STATIONS ARE NOT UNDER NWS QUALITY CONTROL. THEY DO NOT
   REPORT WEATHER SUCH AS PRECIPITATION OR FOG.

MTZ001>007-043-270800-
WEST OF THE DIVIDE
CITY           SKY/WX    TMP DP  RH WIND       PRES   REMARKS
KALISPELL      CLOUDY    25  18  75 NW3       29.93F
MISSOULA       MOCLDY    27  12  53 SE10      29.95F WCI  18
BUTTE          PTCLDY    10   5  80 S5        29.91F WCI   1
MULLAN PASS    LGT SNOW  21  18  88 SE6       29.80F VSB 3    WCI  13
* ANACONDA     PTCLDY    12   7  80 SW9        N/A
* ESSEX        N/A       14   8  77 SE8        N/A   WCI   3
* LINCOLN      N/A        8   1  73 NE5        N/A   WCI  -1
* LOOKOUT PASS N/A       28  20  72 S3         N/A
* POLSON       N/A       25  18  75 N/A        N/A
* RONAN APT    MOCLDY    27  21  78 N/A        N/A
* SEELEY LAKE  N/A        9   5  84 N2         N/A
* THOMP F APT  CLOUDY    17   7  65 NE1G10     N/A
$$

MTZ008-052>055-270800-
SOUTHWEST MONTANA
CITY           SKY/WX    TMP DP  RH WIND       PRES   REMARKS
BOZEMAN        PTCLDY     9   1  70 SW5       30.00F
DILLON         MOCLDY    10   7  88 SW5       29.93F WCI   1
* W YELLOWSTON PTCLDY   N/A N/A N/A N/A        N/A
* THREE FORKS  PTCLDY    12   3  67 N/A        N/A
* BOULDER HILL N/A        9   3  76 S12        N/A   WCI  -6
* MONIDA PASS  N/A       11   8  88 W3         N/A
* RAYNOLDS PAS N/A        5 -22  27 NE1        N/A
* WHITEHALL    N/A       13   6  73 E4         N/A
* WISE RIVER   N/A       13   5  70 SE7        N/A   WCI   3
$$

MTZ009>010-012-014-046-048-049-054-270800-
EAST SLOPES AND CENTRAL MONTANA
CITY           SKY/WX    TMP DP  RH WIND       PRES   REMARKS
CUT BANK       MOCLDY     7   3  83 SE9       29.98F WCI  -6
GREAT FALLS    PTCLDY    10   3  73 S8        29.99F WCI  -2
HELENA         PTCLDY    12   7  80 W5        30.01F WCI   4
* DEARBORN     N/A        5   2  87 S1         N/A
* EAST GLACIER N/A        3   0  87 N5         N/A   WCI  -7
* MONARCH      N/A        3  -3  76 NE3        N/A
* PENDROY      N/A        1  -1  91 SW7        N/A   WCI -12
* ROGERS PASS  N/A       11   5  77 NW2        N/A
* SWEET GRASS  N/A        5   2  87 S26G31     N/A   WCI -18
$$

MTZ011-013-016-021-035-040-045-047-050-051-270800-
NORTH CENTRAL MONTANA
CITY           SKY/WX    TMP DP  RH WIND       PRES   REMARKS
HAVRE          CLEAR      1  -2  87 E6        30.12F WCI -11
LEWISTOWN      PTCLDY    -6 -11  78 SE6       30.01F WCI -19
* N BAR RANCH  CLEAR      7  -4  60 VRB5G18   30.02F WCI  -2
* CHESTER      N/A        6   0  76 SE7        N/A   WCI  -6
* DENTON       N/A        9  -2  61 S17G25     N/A   WCI  -9
* GEYSER       N/A       -5  -9  82 SW6        N/A   WCI -18
* JUDITH GAP   N/A       -4  -8  83 SE14       N/A   WCI -24
* LOMA         N/A        8   2  76 E13        N/A   WCI  -8
$$

MTZ017>020-022>027-061-062-270800-
NORTHEAST MONTANA
CITY           SKY/WX    TMP DP  RH WIND       PRES   REMARKS
GLASGOW        CLEAR      1  -6  72 E12       30.27F WCI -16
GLENDIVE       CLEAR      1  -4  79 S6        30.32F WCI -11
JORDAN         CLEAR      1  -4  79 S8        30.24F WCI -13
SIDNEY         CLEAR     -2 -17  48 CALM      30.41F
WOLF POINT     CLEAR      1  -6  72 NE3       30.35F
* BEAVER HILL  N/A        3  -5  69 SE14       N/A   WCI -15
* CIRCLE       N/A        3  -3  76 N/A        N/A
* LINDSAY DVD  N/A       -3  -9  75 S6         N/A   WCI -15
* NAVAJO       N/A       -2  -7  79 S6         N/A   WCI -14
* SACO         N/A        7  -4  60 SE12       N/A   WCI  -9
$$

MTZ028>042-056>058-270800-
SOUTHCENTRAL AND SOUTHEAST MONTANA
CITY           SKY/WX    TMP DP  RH WIND       PRES   REMARKS
BAKER          CLEAR     -2  -8  75 CALM      30.31F
BILLINGS       CLEAR      3   0  87 NE3       30.13F
LIVINGSTON     CLOUDY     9   1  70 E6        30.02F WCI  -1
MILES CITY     CLEAR      0  -6  75 S7        30.29F WCI -13
* LAUREL APT   PTCLDY     1  -8  65 N/A        N/A
* ROUNDUP APT  PTCLDY     3  -8  60 N/A        N/A
* ALZADA       N/A       -7 -11  82 E4         N/A
* HYSHAM       N/A        4  -6  63 SE10       N/A   WCI -11
* LAME DEER    N/A       -3  -8  79 SE9G15     N/A   WCI -19
* REED POINT   N/A      N/A N/A N/A E3         N/A
$$

REGIONAL REPORTS...DAKOTAS
CITY           SKY/WX    TMP DP  RH WIND       PRES   REMARKS
WILLISTON      PTCLDY    -8 -11  86 CALM      30.39F
DICKINSON      CLEAR     -4  -9  79 S8        30.33F WCI -19
BEACH          CLEAR     -2  -6  83 S9        30.32F WCI -18
CROSBY         CLEAR     -9 -13  82 S13       30.38F WCI -30
WATFORD CITY   CLEAR    -11 -17  74 CALM      30.37F
BISMARCK       CLEAR     -8 -13  78 SW3       30.48F
GRAND FORKS    PTCLDY    -9 -15  74 W7        30.47F WCI -24
FARGO          CLEAR     -6 -13  71 W7        30.50F WCI -20
BUFFALO SD     CLEAR      0  -9  65 S6        30.24F WCI -12
RAPID CITY     PTCLDY    -9 -15  74 CALM      30.33F
$$

REGIONAL REPORTS...WYOMING/IDAHO/WASHINGTON
CITY           SKY/WX    TMP DP  RH WIND       PRES   REMARKS
GILLETTE       CLEAR      1  -4  79 S15       30.15F WCI -18
SHERIDAN       PTCLDY    -8 -11  86 N3        30.13F
CODY           PTCLDY     3   1  91 S7        30.01F WCI  -9
YELLOWSTONE LA PTCLDY    -8 -11  86 W3        29.85F
SALMON         MOCLDY    28  19  69 CALM      29.88S
MULLAN PASS    LGT SNOW  21  18  88 SE6       29.80S VSB 3    WCI  13
SAND POINT     MOCLDY    32  32 100 CALM      29.92F
SPOKANE        PTCLDY    34  30  85 NE3       29.89F

$$




USA.gov is the U.S. government's official web portal to all federal, state and local government web resources and services.